Location: Copeville
(33.0796°N, 96.4155°W)
Time: 20:02:09
(UTC+00:00)

Cosmos 1328 Rocket - Pass Details

Date: 11 July 2022
Orbit: 600 x 627 km, 82.5° (Epoch: 17 August)

Event Time Altitude Azimuth Distance (km) Brightness Sun altitude
Rises 07:14:19 0° 6° (N) 2,886 8.0 -33.9°
Reaches altitude 10° 07:16:48 10° 18° (NNE) 1,972 6.9 -33.8°
Enters shadow 07:18:44 21° 38° (NE) 1,383 5.9 -33.7°
